User: anonymous   Login
Location: Unspecified
(0.0000°N, 0.0000°E)
Time: 07:25:13
(UTC+00:00)
Language:

USA 189 - Orbit

View from above orbital plane
View from above orbital plane
View from above satellite
View from above satellite

Ground track
Ground track

The orbit data is extracted from the following two-line orbital elements,

1 29242U 06024C   17294.55563752 0.00000000  00000-0  00000-0 0    05
2 29242   8.0687  42.9001 0004477 167.5640 192.4590  1.04020130    08
Epoch (UTC): 21 October 2017 13:20:07
Eccentricity: 0.0004477
inclination: 8.0687°
perigee height: 34748 km
apogee height: 34785 km
right ascension of ascending node: 42.9001°
argument of perigee: 167.5640°
revolutions per day: 1.04020130
mean anomaly at epoch: 192.4590°
orbit number at epoch: 0

The dashed part of the orbit path shows where the satellite is in the earth's shadow,  

DLR